SCP
0 0 0 0 0 0 0 0 0 1 1 1 1 1 1 1 0 0 0 0 0 0 0 0 0 0 0 0 0 0 0 0 0 0 0 0 0 0 0 0 0 0 0
0 0 0 0 0 0 0 0 0 1 1 1 1 1 1 1 0 0 0 0 0 0 0 0 0 0 0 0 0 0 0 0 0 0 0 0 0 0 0 0 0 0 0
0 0 0 0 0 0 0 0 0 0 0 1 1 1 1 1 1 0 0 0 0 0 0 0 0 0 0 0 0 0 0 0 0 0 0 0 0 0 0 0 0 0 0
0 0 0 0 0 0 0 0 0 0 0 0 1 1 1 1 1 1 0 0 0 0 0 0 0 0 0 0 0 0 0 0 0 0 0 0 0 0 0 0 0 0 0
0 0 0 0 0 0 0 0 0 0 0 0 0 1 1 1 1 0 0 0 0 0 0 0 0 0 0 0 0 0 0 0 0 0 0 0 0 0 0 0 0 0 0
0 0 0 0 0 0 0 0 0 0 0 0 0 0 1 1 0 0 0 0 0 0 0 0 0 0 0 0 0 0 0 0 0 0 0 0 0 0 0 0 0 0 0
0 0 0 0 0 0 0 0 0 0 0 0 0 0 0 0 0 0 0 0 0 0 0 0 0 0 0 0 0 0 0 0 0 0 0 0 0 0 0 0 0 0 0
0 0 0 0 0 0 0 0 0 0 0 0 0 0 0 0 0 0 0 0 0 0 0 0 0 0 0 0 0 0 0 0 0 0 0 0 0 0 0 0 0 0 0
0 0 0 0 0 0 0 0 0 0 0 0 0 0 0 0 0 0 0 0 0 0 0 0 0 0 0 0 0 0 0 0 0 0 0 0 0 0 0 0 0 0 0
0 0 0 0 0 0 0 0 0 0 0 0 0 0 0 0 0 0 0 0 0 0 0 0 0 0 0 0 0 0 0 0 0 0 0 0 0 0 0 0 0 0 0
0 0 0 0 0 0 0 0 0 0 0 0 0 0 0 0 0 0 0 0 0 0 0 0 0 0 0 0 0 0 0 0 0 0 0 0 0 0 0 0 0 0 0
0 0 0 0 0 0 0 0 0 0 0 0 0 0 0 0 0 0 0 0 0 0 0 0 0 0 0 0 0 0 0 0 0 0 0 0 0 0 0 0 0 0 0
0 0 0 0 0 0 0 0 0 0 0 0 0 0 0 0 0 0 0 0 0 0 0 0 0 0 0 0 0 0 0 0 0 0 0 0 0 0 0 0 0 0 0
0 0 0 0 0 0 0 0 0 0 0 0 0 0 0 0 0 0 0 0 0 0 0 0 0 0 0 0 0 0 0 0 0 0 0 0 0 0 0 0 0 0 0
0 0 0 0 0 0 0 0 0 0 0 0 0 0 0 0 0 0 0 0 0 0 0 0 0 0 0 0 0 0 0 0 0 0 0 0 0 0 0 0 0 0 0
0 0 0 0 0 0 0 0 0 0 0 0 0 0 0 0 0 0 0 0 0 0 0 0 0 0 0 0 0 0 0 0 0 0 0 0 0 0 0 0 0 0 0
0 0 0 0 0 0 0 0 0 0 0 0 0 0 0 0 0 0 0 0 0 0 0 0 0 0 0 0 0 0 0 0 0 0 0 0 0 0 0 0 0 0 0
0 0 0 0 0 0 0 0 0 0 0 0 0 0 0 0 0 0 0 0 0 0 0 0 0 0 0 0 0 0 0 0 0 0 0 0 0 0 0 0 0 0 0
0 -0 -0 -0 -0 0 0 -0 -0 0 0 0 0 0 0 0 0 0 0 0 0 0 0 0 0 0 0 0 0 0 0 0 0 0 0 0 0 0 0 0 0 0 0
0 0 0 0 0 0 0 0 0 0 0 0 0 0 0 0 0 0 0 0 0 0 0 0 0 0 0 0 0 0 0 0 0 0 0 0 0 0 0 0 0 0 0
-0 -0 0 0 0 0 0 0 0 0 0 0 0 0 0 0 0 0 0 0 0 0 0 0 0 0 0 0 0 0 0 0 0 0 0 0 0 0 0 0 0 0 0
-0 -0 0 0 0 0 0 0 0 0 0 0 0 0 0 0 0 0 0 0 0 0 0 0 0 0 0 0 0 0 0 0 0 0 0 0 0 0 0 0 0 0 0
-0 0 0 0 0 0 0 0 0 0 0 0 0 0 0 0 0 0 0 0 0 0 0 0 0 0 0 0 0 0 0 0 0 0 0 0 0 0 0 0 0 0 0
0 0 0 0 0 0 0 0 0 0 0 0 0 0 0 0 0 0 0 0 0 0 0 0 0 0 0 0 0 0 0 0 0 0 0 0 0 0 0 0 0 0 0
0 0 0 0 0 0 -0 0 0 0 0 0 0 0 0 0 0 0 0 0 0 0 0 0 0 0 0 0 0 0 0 0 0 0 0 0 0 0 0 0 0 0 0
0 0 0 0 0 0 -0 0 0 0 0 0 0 0 0 0 0 0 0 0 0 0 0 0 0 0 0 0 0 0 0 0 0 0 0 0 0 0 0 0 0 0 0
Wind_Speed
8 6 6 6 6 6 8 9 11 11 9 8 10 10 11 10 9 10 11 12 11 12 11 8 8 8 8 8 8 5 4 3 3 3 2 1 1 1 1 2 2 2 2
6 5 5 5 6 6 7 8 10 10 10 10 10 7 8 7 8 7 9 11 12 12 12 12 10 10 7 8 8 6 5 3 3 4 3 1 1 1 1 1 2 2 2
6 5 4 4 4 5 6 7 9 9 10 10 6 4 3 2 4 6 9 11 12 13 13 13 11 11 11 11 10 9 9 5 2 2 4 5 5 2 0 0 1 2 2
4 4 4 3 3 4 4 5 6 7 8 8 8 10 10 11 12 10 10 10 12 13 13 13 12 12 10 10 11 9 6 7 5 2 1 1 3 4 2 1 1 1 3
3 4 4 4 4 3 2 3 4 5 6 7 9 11 12 11 7 6 7 8 8 10 11 12 11 12 10 10 10 9 7 5 6 5 4 2 2 1 3 3 2 1 1
4 4 4 4 4 3 3 2 3 4 4 6 8 10 12 11 8 8 9 8 6 7 10 10 11 10 9 10 10 9 9 6 6 5 4 4 4 3 3 3 2 1 2
6 7 8 8 7 7 6 5 4 5 5 5 7 9 11 11 13 12 11 10 7 7 11 11 10 9 8 9 9 8 8 7 8 6 3 3 3 3 3 3 2 1 2
6 6 6 6 7 8 7 7 7 7 6 6 7 8 9 8 8 10 9 11 9 9 9 9 9 9 9 9 8 7 7 6 7 7 5 4 3 3 3 3 4 1 1
6 6 6 6 7 8 7 7 7 8 8 7 7 7 8 8 8 8 7 6 5 5 8 8 8 9 9 10 9 7 8 8 7 7 6 4 3 3 2 3 3 3 2
7 7 6 7 7 7 7 7 7 8 8 8 6 6 6 6 6 5 6 6 6 7 10 10 10 10 10 10 9 9 8 9 7 6 7 5 3 3 2 2 2 2 3
6 6 6 6 7 7 7 7 8 8 8 7 6 5 4 3 4 5 6 7 8 10 11 11 11 11 11 11 10 9 10 10 7 6 6 5 4 3 2 2 2 2 3
5 4 5 6 6 7 7 7 7 7 7 6 5 3 1 2 4 5 7 8 10 10 11 11 12 12 11 11 11 11 10 9 8 7 6 4 3 3 2 2 2 2 3
5 4 5 5 6 7 7 7 7 6 6 4 3 3 2 3 5 7 9 10 10 11 11 12 12 12 12 11 11 10 10 9 7 6 5 4 3 2 1 2 2 3 3
5 4 5 5 6 6 6 6 6 6 5 5 5 5 5 6 7 8 10 11 11 12 11 12 12 12 12 12 11 10 10 9 7 5 4 3 2 2 2 2 3 3 3
4 4 4 4 5 6 6 6 6 6 5 6 7 7 7 9 10 10 11 11 12 12 12 13 13 12 10 10 11 10 9 8 6 5 3 2 1 1 2 2 3 3 3
4 3 4 4 5 5 5 5 5 5 5 7 7 8 9 11 11 11 12 12 12 12 13 13 12 11 9 15 15 11 8 7 5 4 3 1 1 3 5 8 8 7 4
3 3 3 3 3 4 4 4 4 5 6 8 8 8 10 11 11 12 12 12 12 12 12 12 11 11 12 16 14 12 7 6 4 3 2 1 1 3 3 6 9 9 12
2 2 2 2 2 3 4 4 5 6 7 8 8 9 10 12 12 12 12 11 10 10 10 11 10 9 10 13 12 11 6 5 3 2 1 1 2 3 5 5 5 5 6
0 1 1 1 3 4 4 6 6 6 7 8 8 8 9 11 11 12 11 10 10 10 9 8 8 8 7 9 9 9 4 3 2 1 0 1 3 8 11 5 5 6 6
2 2 3 4 4 4 5 7 6 7 7 7 8 8 8 10 10 10 10 9 9 9 9 8 7 6 5 7 8 7 3 2 1 0 1 4 6 10 11 5 4 6 7
3 4 4 4 4 4 6 7 7 7 6 7 8 8 8 9 9 9 8 8 8 9 8 8 6 5 5 5 6 5 2 1 0 1 1 3 10 12 13 11 4 9 10
4 4 5 5 4 4 6 7 7 6 7 8 9 8 8 7 8 9 8 7 8 8 7 6 5 4 4 4 4 5 4 3 0 1 2 4 12 13 13 9 10 14 11
4 4 6 6 5 4 6 7 6 6 7 8 8 8 8 7 7 7 7 6 5 5 4 4 4 2 2 3 6 6 6 7 2 2 7 10 12 12 8 10 13 9 4
5 5 6 6 5 5 5 6 6 7 8 8 7 7 7 7 6 5 4 4 4 4 4 3 3 2 1 2 2 2 3 5 4 3 5 9 10 8 8 8 7 4 4
5 5 6 6 6 6 6 6 6 7 8 8 7 6 6 6 6 5 4 4 2 3 4 2 2 2 1 3 5 3 2 2 3 3 2 3 4 4 4 4 4 4 4
6 6 6 7 6 6 6 6 6 7 8 7 6 5 5 5 5 5 5 8 7 9 8 5 3 1 2 5 7 8 8 9 9 4 2 4 4 5 5 6 7 6 5
Wind_Direction
256 256 247 239 233 229 220 215 212 211 199 195 201 204 211 210 209 209 205 201 196 191 189 186 177 176 178 177 162 140 134 129 139 115 95 42 54 132 156 163 159 164 154
276 265 252 236 225 225 224 222 219 214 205 205 205 204 204 210 211 208 205 202 197 192 191 187 184 182 176 170 170 152 141 139 164 146 137 181 284 248 130 159 172 172 152
272 279 273 254 235 231 228 227 225 221 215 211 202 186 177 178 189 205 210 206 199 195 194 191 185 184 181 182 181 171 156 152 167 180 157 163 210 201 222 164 155 170 168
285 289 295 290 266 251 245 236 233 229 224 212 202 199 204 210 210 209 210 204 198 196 194 189 185 184 185 183 183 175 163 145 155 159 118 118 147 156 185 242 225 213 196
315 316 309 295 290 285 273 257 250 242 233 219 213 212 217 220 214 202 199 199 197 195 191 187 185 185 185 182 176 170 167 158 156 157 151 133 74 96 150 195 223 268 233
2 359 356 356 347 340 331 314 291 270 247 229 222 220 222 219 207 200 201 199 193 192 191 186 186 184 180 177 175 171 170 163 152 149 149 152 156 167 157 167 181 241 280
13 11 8 3 356 351 344 339 324 300 280 251 236 228 228 222 216 209 206 198 192 196 196 187 185 180 173 166 160 160 161 152 146 144 136 129 126 132 133 131 144 208 301
9 6 358 353 347 344 343 338 326 308 295 270 252 241 231 225 224 216 207 203 203 199 186 182 175 163 156 155 149 144 140 134 131 129 124 117 110 110 125 136 139 155 294
356 352 347 347 342 339 335 329 319 309 300 286 268 253 237 227 223 214 203 195 183 163 159 158 154 149 146 144 140 134 131 126 120 120 115 109 103 101 103 118 139 155 215
345 344 343 340 335 331 326 327 319 306 300 294 281 269 247 229 216 193 181 169 155 146 146 146 143 140 137 135 128 124 123 119 115 117 115 108 109 113 115 130 144 157 176
329 332 332 329 325 327 330 330 328 321 315 310 303 285 255 214 187 174 166 154 143 143 146 143 138 135 132 129 123 122 120 115 111 108 113 118 125 126 130 139 155 176 179
321 323 325 327 330 331 331 332 331 326 320 317 315 305 258 155 150 146 140 136 136 135 134 132 130 128 126 123 122 122 118 119 120 114 114 118 124 123 139 167 194 208 206
326 329 333 335 333 332 331 330 331 331 332 342 1 25 67 112 124 124 123 124 125 124 125 125 124 123 120 117 114 115 113 110 111 112 119 127 133 145 183 207 221 230 232
320 328 334 335 335 335 333 334 340 347 359 23 46 56 67 86 98 105 110 114 116 116 117 116 115 114 113 111 111 111 109 106 104 105 116 133 153 177 216 234 240 241 249
321 330 331 331 335 340 342 347 356 2 23 51 59 65 74 82 89 94 98 103 106 109 108 106 105 106 106 110 112 111 111 111 112 110 108 106 99 284 258 265 254 243 246
315 324 334 338 342 347 348 354 6 17 44 65 68 75 82 85 88 92 95 98 100 102 103 103 105 103 106 116 116 116 114 118 123 121 104 74 41 347 345 323 307 293 281
306 320 332 340 349 355 1 11 24 43 63 73 78 83 89 91 91 94 95 96 98 99 99 99 100 102 112 117 117 117 117 119 121 118 109 77 352 4 312 300 302 303 301
313 337 347 5 19 29 39 45 53 62 71 77 81 86 92 95 95 96 96 97 98 98 98 99 101 104 113 117 119 119 111 111 111 122 152 215 303 302 288 264 268 269 276
39 62 64 68 63 62 67 71 68 69 75 79 82 88 96 100 101 100 100 100 99 96 95 97 100 100 104 111 116 116 110 111 120 136 118 310 282 298 310 308 289 288 287
88 88 84 81 77 72 81 82 78 77 78 82 86 89 95 100 102 102 101 99 98 98 97 92 90 93 93 106 111 113 113 111 93 20 309 317 312 309 317 309 293 295 293
100 96 93 86 86 91 94 92 88 84 86 89 90 89 91 95 98 97 96 99 99 98 95 93 83 76 76 81 87 92 108 117 118 302 292 292 317 320 321 323 308 294 305
112 108 101 91 87 96 104 100 94 94 94 94 92 90 90 93 97 98 96 97 103 102 100 97 84 59 46 52 50 43 32 30 125 296 288 296 320 328 329 327 313 316 328
129 120 114 104 93 93 107 108 104 105 104 100 96 94 91 88 93 100 104 101 99 103 103 99 91 69 40 27 34 26 12 2 360 312 323 329 333 335 332 322 326 335 330
141 134 125 118 111 104 105 111 116 114 110 105 101 100 99 93 85 83 89 97 101 103 105 105 103 82 33 354 341 341 341 344 338 329 334 339 339 336 325 326 328 314 295
144 141 135 130 126 121 115 116 120 120 114 109 106 101 96 97 87 79 81 92 89 127 126 123 125 113 16 334 353 355 333 322 309 343 0 343 334 334 328 320 309 302 303
144 139 136 133 131 127 122 122 126 128 124 117 110 105 104 100 98 96 84 81 89 90 93 103 102 64 16 359 358 352 349 346 347 5 346 328 324 321 320 319 318 313 307